{"data":{"norad_id":69019,"epoch":"2026-05-25T04:26:59.990784Z","epoch_age_seconds":54908,"freshness":"FRESH","line1":"1 69019U 26100AR  26145.18541656  .00002628  00000+0  12382-3 0  9994","line2":"2 69019  97.4064  43.4206 0006751 102.6006 257.5985 15.20368956  3313","mean_motion":15.20368956,"eccentricity":0.0006751,"inclination_deg":97.4064,"raan_deg":43.4206,"arg_perigee_deg":102.6006,"mean_anomaly_deg":257.5985,"bstar":0.00012382,"rev_number":331,"period_min":94.713851813217,"perigee_km":500.0802330595,"apogee_km":509.37347583577,"semimajor_km":6882.8638544476,"source":"CELESTRAK","updated_at":"2026-05-25T13:38:13.375566Z"}}